| time (UTC) | temp F | wind direction | speed MPH | gust MPH | rain 1hr in | rain 24hr in | rain mn in | humidity % | barometer mb |
| 20260903073052 | 73 | 183 | 1.0 | 5.0 | 0.00 | 0.00 | 0.00 | 71 | 1007.6 |
| 20260903071548 | 73 | 143 | 3.0 | 7.0 | 0.00 | 0.00 | 0.00 | 73 | 1007.6 |
| 20260903070046 | 73 | 131 | 4.0 | 8.0 | 0.00 | 0.00 | 0.00 | 72 | 1007.9 |
| 20260903064544 | 73 | 163 | 3.0 | 5.0 | 0.00 | 0.00 | 0.00 | 73 | 1007.9 |
| 20260903063044 | 73 | 160 | 4.0 | 6.0 | 0.00 | 0.00 | 0.00 | 69 | 1008.0 |
| 20260903061543 | 73 | 170 | 2.0 | 4.0 | 0.00 | 0.97 | 0.00 | 66 | 1007.9 |
| 20260903060042 | 72 | 126 | 1.0 | 4.0 | 0.00 | 0.97 | 0.00 | 70 | 1008.0 |
| 20260903054541 | 73 | 129 | 2.0 | 4.0 | 0.00 | 0.97 | 0.00 | 69 | 1008.0 |
| 20260903053023 | 73 | 114 | 0.0 | 2.0 | 0.00 | 0.97 | 0.00 | 66 | 1008.0 |
| 20260903051521 | 73 | 116 | 2.0 | 4.0 | 0.00 | 1.32 | 0.00 | 68 | 1008.0 |
| 20260903050003 | 73 | 106 | 1.0 | 3.0 | 0.00 | 1.32 | 0.00 | 71 | 1008.1 |
| 20260903044502 | 73 | 113 | 2.0 | 4.0 | 0.00 | 1.32 | 0.00 | 70 | 1008.1 |
| 20260903043101 | 74 | 118 | 3.0 | 4.0 | 0.00 | 1.32 | 0.00 | 71 | 1008.1 |
| 20260903041544 | 73 | 113 | 2.0 | 4.0 | 0.00 | 1.33 | 0.00 | 72 | 1008.2 |
| 20260903040043 | 73 | 113 | 1.0 | 4.0 | 0.00 | 1.33 | 0.00 | 74 | 1008.2 |
| 20260903034523 | 74 | 127 | 2.0 | 4.0 | 0.00 | 1.33 | 0.00 | 78 | 1008.3 |
| 20260903033031 | 74 | 113 | 3.0 | 4.0 | 0.00 | 1.33 | 0.00 | 80 | 1008.4 |
| 20260903031501 | 75 | 120 | 3.0 | 5.0 | 0.00 | 1.33 | 0.00 | 83 | 1008.3 |
| 20260903030100 | 75 | 116 | 2.0 | 4.0 | 0.00 | 1.33 | 0.00 | 83 | 1008.4 |
| 20260903024545 | 75 | 136 | 2.0 | 4.0 | 0.00 | 1.33 | 0.00 | 84 | 1008.3 |
| 20260903023040 | 76 | 148 | 3.0 | 4.0 | 0.00 | 1.33 | 0.00 | 85 | 1008.3 |
| 20260903021533 | 76 | 128 | 2.0 | 4.0 | 0.00 | 1.33 | 0.00 | 85 | 1008.2 |
| 20260903020019 | 77 | 107 | 2.0 | 4.0 | 0.00 | 1.33 | 0.00 | 86 | 1008.1 |
| 20260903014502 | 77 | 136 | 2.0 | 4.0 | 0.00 | 1.33 | 0.00 | 86 | 1007.9 |
| 20260903013100 | 77 | 132 | 3.0 | 5.0 | 0.00 | 1.33 | 0.00 | 86 | 1007.7 |
| 20260903011539 | 78 | 108 | 2.0 | 5.0 | 0.00 | 1.33 | 0.00 | 86 | 1007.7 |
| 20260903010037 | 79 | 130 | 2.0 | 5.0 | 0.00 | 1.33 | 0.00 | 85 | 1007.6 |
| 20260903004521 | 81 | 133 | 2.0 | 4.0 | 0.00 | 1.33 | 0.00 | 83 | 1007.7 |
| 20260903003012 | 83 | 134 | 1.0 | 5.0 | 0.00 | 1.33 | 0.00 | 80 | 1007.7 |
| 20260903001556 | 84 | 135 | 0.0 | 3.0 | 0.00 | 1.33 | 0.00 | 76 | 1007.8 |
| 20260903000054 | 86 | 180 | 3.0 | 6.0 | 0.00 | 1.33 | 0.00 | 73 | 1007.8 |
| 20260902234537 | 86 | 167 | 3.0 | 6.0 | 0.00 | 1.33 | 0.00 | 71 | 1007.8 |
| 20260902233036 | 87 | 169 | 4.0 | 9.0 | 0.00 | 1.33 | 0.00 | 70 | 1007.9 |
| 20260902231525 | 87 | 215 | 7.0 | 11.0 | 0.00 | 1.33 | 0.00 | 68 | 1007.8 |
| 20260902230025 | 88 | 168 | 5.0 | 9.0 | 0.00 | 1.33 | 0.00 | 69 | 1007.9 |
| 20260902224524 | 88 | 165 | 4.0 | 12.0 | 0.00 | 1.33 | 0.00 | 68 | 1008.0 |
| 20260902223022 | 88 | 120 | 6.0 | 10.0 | 0.00 | 1.33 | 0.00 | 65 | 1007.9 |
| 20260902221521 | 88 | 162 | 5.0 | 11.0 | 0.00 | 1.33 | 0.00 | 64 | 1008.0 |
| 20260902220020 | 88 | 198 | 7.0 | 12.0 | 0.00 | 1.33 | 0.00 | 63 | 1008.2 |
| 20260902214526 | 88 | 153 | 7.0 | 13.0 | 0.00 | 1.33 | 0.00 | 64 | 1008.2 |
| 20260902213017 | 89 | 159 | 6.0 | 10.0 | 0.00 | 1.33 | 0.00 | 66 | 1008.3 |
| 20260902211605 | 89 | 169 | 5.0 | 8.0 | 0.00 | 1.33 | 0.00 | 66 | 1008.4 |
| 20260902204537 | 88 | 206 | 6.0 | 11.0 | 0.00 | 1.33 | 0.00 | 63 | 1008.5 |
| 20260902203035 | 88 | 195 | 5.0 | 9.0 | 0.00 | 1.33 | 0.00 | 66 | 1008.6 |
| 20260902201528 | 87 | 197 | 5.0 | 9.0 | 0.00 | 1.33 | 0.00 | 65 | 1008.7 |
| 20260902200026 | 88 | 204 | 4.0 | 9.0 | 0.00 | 1.33 | 0.00 | 64 | 1008.9 |
| 20260902194518 | 87 | 257 | 3.0 | 7.0 | 0.00 | 1.33 | 0.00 | 64 | 1008.9 |
| 20260902193015 | 87 | 226 | 2.0 | 7.0 | 0.00 | 1.33 | 0.00 | 65 | 1009.1 |
| 20260902191514 | 86 | 214 | 5.0 | 9.0 | 0.00 | 1.33 | 0.00 | 63 | 1009.3 |
| 20260902190010 | 86 | 261 | 4.0 | 9.0 | 0.00 | 1.33 | 0.00 | 65 | 1009.4 |
| 20260902184507 | 86 | 194 | 2.0 | 8.0 | 0.00 | 1.33 | 0.00 | 64 | 1009.4 |
| 20260902183005 | 86 | 177 | 2.0 | 6.0 | 0.00 | 1.33 | 0.00 | 65 | 1009.6 |
| 20260902181544 | 85 | 278 | 3.0 | 6.0 | 0.00 | 1.33 | 0.00 | 68 | 1009.8 |
| 20260902180045 | 84 | 254 | 3.0 | 6.0 | 0.00 | 1.33 | 0.00 | 69 | 1009.9 |
| 20260902174521 | 84 | 256 | 1.0 | 5.0 | 0.00 | 1.33 | 0.00 | 74 | 1010.1 |
| 20260902173017 | 82 | 251 | 2.0 | 6.0 | 0.00 | 1.33 | 0.00 | 77 | 1010.3 |
| 20260902171602 | 83 | 254 | 1.0 | 5.0 | 0.00 | 1.33 | 1.33 | 74 | 1010.3 |
| 20260902170058 | 83 | 208 | 1.0 | 6.0 | 0.00 | 1.33 | 1.33 | 74 | 1010.1 |
| 20260902164541 | 81 | 229 | 2.0 | 8.0 | 0.00 | 1.33 | 1.33 | 82 | 1010.4 |
| 20260902163052 | 80 | 167 | 6.0 | 11.0 | 0.00 | 1.33 | 1.33 | 83 | 1010.6 |
| 20260902161526 | 79 | 204 | 4.0 | 11.0 | 0.00 | 1.33 | 1.33 | 86 | 1010.5 |
| 20260902160021 | 78 | 227 | 4.0 | 11.0 | 0.00 | 1.33 | 1.33 | 86 | 1010.4 |
| 20260902154503 | 76 | 197 | 8.0 | 12.0 | 0.00 | 1.33 | 1.33 | 66 | 1010.5 |
| 20260902153003 | 75 | 206 | 8.0 | 11.0 | 0.00 | 1.33 | 1.33 | 47 | 1010.5 |
| 20260902151551 | 74 | 212 | 5.0 | 12.0 | 0.00 | 1.33 | 1.33 | 45 | 1010.3 |
| 20260902150043 | 73 | 218 | 5.0 | 11.0 | 0.00 | 1.33 | 1.33 | 44 | 1009.9 |
| 20260902144534 | 72 | 232 | 6.0 | 10.0 | 0.00 | 1.33 | 1.33 | 44 | 1009.8 |
| 20260902143025 | 72 | 175 | 6.0 | 10.0 | 0.00 | 1.33 | 1.33 | 43 | 1009.9 |
| 20260902141506 | 71 | 201 | 5.0 | 11.0 | 0.00 | 1.33 | 1.33 | 43 | 1010.1 |
| 20260902140006 | 70 | 203 | 2.0 | 5.0 | 0.00 | 1.33 | 1.33 | 43 | 1010.1 |
| 20260902134602 | 69 | 205 | 4.0 | 9.0 | 0.00 | 1.33 | 1.33 | 43 | 1010.1 |
| 20260902133049 | 68 | 205 | 5.0 | 8.0 | 0.00 | 1.33 | 1.33 | 42 | 1009.9 |
| 20260902131544 | 68 | 165 | 3.0 | 8.0 | 0.00 | 1.33 | 1.33 | 43 | 1009.7 |
| 20260902130033 | 66 | 171 | 3.0 | 7.0 | 0.00 | 1.33 | 1.33 | 43 | 1009.7 |
| 20260902124535 | 67 | 108 | 1.0 | 4.0 | 0.00 | 1.33 | 1.33 | 43 | 1009.9 |
| 20260902123031 | 0 | 0.0 | 0.0 | 0.00 | 1.33 | 1.33 | 1009.9 | ||
| 20260902121530 | 0 | 0.0 | 0.0 | 0.00 | 1.33 | 1.33 | 1010.0 | ||
| 20260902120034 | 0 | 0.0 | 0.0 | 0.00 | 1.33 | 1.33 | 1009.9 | ||
| 20260902114531 | 0 | 0.0 | 0.0 | 0.00 | 1.33 | 1.33 | 1010.3 | ||
| 20260902113026 | 0 | 0.0 | 0.0 | 0.00 | 1.33 | 1.33 | 1010.2 | ||
| 20260902111512 | 0 | 0.0 | 0.0 | 0.00 | 1.33 | 1.33 | 1010.1 | ||
| 20260902110101 | 0 | 0.0 | 0.0 | 0.00 | 1.33 | 1.33 | 1010.0 | ||
| 20260902104538 | 0 | 0.0 | 0.0 | 0.00 | 1.33 | 1.33 | 1010.0 | ||
| 20260902103039 | 0 | 0.0 | 0.0 | 0.00 | 1.33 | 1.33 | 1009.9 | ||
| 20260902101514 | 0 | 0.0 | 0.0 | 0.00 | 1.33 | 1.33 | 1009.9 | ||
| 20260902100008 | 0 | 0.0 | 0.0 | 0.00 | 1.33 | 1.33 | 1010.1 | ||
| 20260902094547 | 67 | 99 | 7.0 | 12.0 | 0.00 | 1.33 | 1.33 | 44 | 1010.4 |
| 20260902093047 | 67 | 117 | 7.0 | 12.0 | 0.00 | 1.33 | 1.33 | 43 | 1010.8 |
| 20260902091556 | 67 | 117 | 6.0 | 9.0 | 0.00 | 1.33 | 1.33 | 44 | 1011.5 |
| 20260902090029 | 67 | 220 | 0.0 | 5.0 | 0.00 | 1.33 | 1.33 | 44 | 1012.4 |
| 20260902084511 | 67 | 227 | 7.0 | 13.0 | 0.00 | 1.33 | 1.33 | 43 | 1012.3 |
| 20260902083010 | 67 | 148 | 3.0 | 8.0 | 0.00 | 1.33 | 1.33 | 43 | 1010.6 |
| 20260902081551 | 67 | 118 | 7.0 | 10.0 | 0.00 | 1.33 | 1.33 | 44 | 1009.9 |
| 20260902080104 | 67 | 170 | 2.0 | 6.0 | 0.00 | 1.33 | 1.33 | 44 | 1010.4 |